Weather History for Farmington, MO

Change the Weather History Date:

Sunday, December 23, 2012

  Actual Average Record
Temperature  
Mean Temperature 50 °F -  
Max Temperature 60 °F 39 °F 64 °F (1996)
Min Temperature 39 °F 23 °F 6 °F (2004)
Degree Days  
Heating Degree Days 16    
Moisture  
Dew Point 31 °F    
Average Humidity 55    
Maximum Humidity 71    
Minimum Humidity 41    
Precipitation  
Precipitation 0.00 in - - ()
Sea Level Pressure  
Sea Level Pressure 29.92 in    
Wind  
Wind Speed 6 mph (SSE)    
Max Wind Speed 9 mph    
Max Gust Speed -    
Visibility 10 miles    
Events      
Averages and records for this station are not official NWS values.
T = Trace of Precipitation, MM = Missing Value Source: NWS Daily Summary

Daily Weather History Graph

Daily Weather History Graph

Search for Another Location

Airport:

Trip Planner

Search our weather history database for the weather conditions in past years. The results will help you decide how hot, cold, wet, or windy it might be!

Date:

Astronomy

Dec. 23, 2012 Rise Set
Actual Time 7:14 AM CST 4:47 PM CST
Civil Twilight 6:45 AM CST 5:17 PM CST
Nautical Twilight 6:12 AM CST 5:50 PM CST
Astronomical Twilight 5:40 AM CST 6:22 PM CST
Moon 1:36 PM CST (12/23) 2:59 AM CST (12/23)
Length of Visible Light 10h 31m
Length of Day
9h 33m
Waxing Gibbous, 82% of the Moon is Illuminated
Dec 23
Waxing Gibbous
Dec 28
Full
Jan 4
Last Quarter
Jan 11
New
Jan 18
First Quarter

Hourly Weather History & Observations

Time (CST) Temp. Windchill Dew Point Humidity Pressure Visibility Wind Dir Wind Speed Gust Speed Precip Events Conditions
12:15 AM 42.8 °F 38.0 °F 26.6 °F 53% 29.99 in 10.0 mi SSW 8.1 mph - N/A   Clear
12:35 AM 42.8 °F 38.6 °F 26.6 °F 53% 29.98 in 10.0 mi SSW 6.9 mph - N/A   Clear
12:55 AM 39.2 °F 37.0 °F 24.8 °F 56% 29.98 in 10.0 mi SSE 3.5 mph - N/A   Clear
1:15 AM 39.2 °F - 24.8 °F 56% 29.98 in 10.0 mi Calm Calm - N/A   Clear
1:35 AM 41.0 °F 39.0 °F 24.8 °F 53% 29.98 in 10.0 mi South 3.5 mph - N/A   Clear
1:55 AM 41.0 °F 39.0 °F 24.8 °F 53% 29.98 in 10.0 mi South 3.5 mph - N/A   Clear
2:15 AM 42.8 °F - 24.8 °F 49% 29.98 in 10.0 mi Calm Calm - N/A   Clear
2:35 AM 41.0 °F 39.0 °F 24.8 °F 53% 29.98 in 10.0 mi SE 3.5 mph - N/A   Clear
2:55 AM 42.8 °F 39.3 °F 24.8 °F 49% 29.97 in 10.0 mi SE 5.8 mph - N/A   Clear
3:15 AM 41.0 °F 37.1 °F 24.8 °F 53% 29.96 in 10.0 mi SE 5.8 mph - N/A   Clear
3:35 AM 41.0 °F 38.0 °F 23.0 °F 49% 29.96 in 10.0 mi SSE 4.6 mph - N/A   Clear
3:55 AM 42.8 °F 39.3 °F 24.8 °F 49% 29.96 in 10.0 mi SSE 5.8 mph - N/A   Clear
4:15 AM 41.0 °F 36.4 °F 24.8 °F 53% 29.96 in 10.0 mi SSE 6.9 mph - N/A   Clear
4:35 AM 41.0 °F 36.4 °F 24.8 °F 53% 29.96 in 10.0 mi SSE 6.9 mph - N/A   Clear
4:55 AM 41.0 °F 36.4 °F 24.8 °F 53% 29.96 in 10.0 mi SSE 6.9 mph - N/A   Clear
5:15 AM 41.0 °F 36.4 °F 24.8 °F 53% 29.96 in 10.0 mi SSE 6.9 mph - N/A   Clear
5:35 AM 41.0 °F 36.4 °F 24.8 °F 53% 29.96 in 10.0 mi SSE 6.9 mph - N/A   Clear
5:55 AM 39.2 °F 33.6 °F 24.8 °F 56% 29.96 in 10.0 mi South 8.1 mph - N/A   Clear
6:15 AM 39.2 °F 33.6 °F 24.8 °F 56% 29.96 in 10.0 mi South 8.1 mph - N/A   Clear
6:35 AM 41.0 °F 36.4 °F 24.8 °F 53% 29.96 in 10.0 mi South 6.9 mph - N/A   Clear
6:55 AM 39.2 °F 33.6 °F 24.8 °F 56% 29.97 in 10.0 mi South 8.1 mph - N/A   Clear
7:15 AM 39.2 °F 34.2 °F 24.8 °F 56% 29.97 in 10.0 mi South 6.9 mph - N/A   Clear
7:35 AM 39.2 °F 35.0 °F 24.8 °F 56% 29.97 in 10.0 mi South 5.8 mph - N/A   Clear
7:55 AM 39.2 °F 35.0 °F 24.8 °F 56% 29.96 in 10.0 mi South 5.8 mph - N/A   Clear
8:15 AM 41.0 °F 37.1 °F 26.6 °F 57% 29.97 in 10.0 mi SSW 5.8 mph - N/A   Clear
8:35 AM 42.8 °F 38.6 °F 26.6 °F 53% 29.97 in 10.0 mi SSW 6.9 mph - N/A   Clear
8:55 AM 44.6 °F 41.4 °F 26.6 °F 49% 29.97 in 10.0 mi South 5.8 mph - N/A   Clear
9:15 AM 46.4 °F 43.5 °F 26.6 °F 46% 29.97 in 10.0 mi South 5.8 mph - N/A   Clear
9:35 AM 48.2 °F - 28.4 °F 46% 29.98 in 10.0 mi South 6.9 mph - N/A   Clear
9:55 AM 48.2 °F - 26.6 °F 43% 29.97 in 10.0 mi South 8.1 mph - N/A   Clear
10:15 AM 50.0 °F - 28.4 °F 43% 29.97 in 10.0 mi SSW 5.8 mph - N/A   Clear
10:35 AM 53.6 °F - 30.2 °F 41% 29.97 in 10.0 mi SSW 6.9 mph - N/A   Clear
10:55 AM 53.6 °F - 32.0 °F 44% 29.95 in 10.0 mi SSW 9.2 mph - N/A   Clear
11:15 AM 55.4 °F - 33.8 °F 44% 29.94 in 10.0 mi SSW 6.9 mph - N/A   Clear
11:35 AM 55.4 °F - 33.8 °F 44% 29.93 in 10.0 mi SSW 5.8 mph - N/A   Clear
11:55 AM 57.2 °F - 39.2 °F 51% 29.92 in 10.0 mi West 4.6 mph - N/A   Clear
12:15 PM 57.2 °F - 37.4 °F 48% 29.91 in 10.0 mi WSW 4.6 mph - N/A   Clear
12:35 PM 59.0 °F - 39.2 °F 48% 29.90 in 10.0 mi WNW 6.9 mph - N/A   Clear
12:55 PM 59.0 °F - 39.2 °F 48% 29.89 in 10.0 mi West 6.9 mph - N/A   Clear
1:15 PM 59.0 °F - 39.2 °F 48% 29.88 in 10.0 mi SW 4.6 mph - N/A   Clear
1:35 PM 59.0 °F - 39.2 °F 48% 29.87 in 10.0 mi Calm Calm - N/A   Clear
1:55 PM 59.0 °F - 39.2 °F 48% 29.86 in 10.0 mi Calm Calm - N/A   Clear
2:15 PM 60.8 °F - 39.2 °F 45% 29.85 in 10.0 mi SSW 4.6 mph - N/A   Clear
2:35 PM 60.8 °F - 39.2 °F 45% 29.86 in 10.0 mi SSE 6.9 mph - N/A   Partly Cloudy
2:55 PM 59.0 °F - 39.2 °F 48% 29.86 in 10.0 mi SSE 5.8 mph - N/A   Mostly Cloudy
3:15 PM 57.2 °F - 39.2 °F 51% 29.86 in 10.0 mi SSE 9.2 mph - N/A   Overcast
3:35 PM 57.2 °F - 39.2 °F 51% 29.86 in 10.0 mi SSE 9.2 mph - N/A   Overcast
3:55 PM 57.2 °F - 39.2 °F 51% 29.86 in 10.0 mi South 6.9 mph - N/A   Overcast
4:15 PM 57.2 °F - 39.2 °F 51% 29.86 in 10.0 mi South 6.9 mph - N/A   Overcast
4:35 PM 55.4 °F - 39.2 °F 54% 29.86 in 10.0 mi SSE 5.8 mph - N/A   Overcast
4:55 PM 53.6 °F - 39.2 °F 58% 29.86 in 10.0 mi SSE 5.8 mph - N/A   Mostly Cloudy
5:15 PM 53.6 °F - 39.2 °F 58% 29.86 in 10.0 mi SSE 3.5 mph - N/A   Partly Cloudy
5:35 PM 53.6 °F - 39.2 °F 58% 29.87 in 10.0 mi NE 4.6 mph - N/A   Mostly Cloudy
5:55 PM 50.0 °F - 37.4 °F 62% 29.88 in 10.0 mi ENE 3.5 mph - N/A   Mostly Cloudy
6:15 PM 50.0 °F - 35.6 °F 58% 29.87 in 10.0 mi NE 8.1 mph - N/A   Mostly Cloudy
6:35 PM 48.2 °F - 33.8 °F 58% 29.87 in 10.0 mi ENE 9.2 mph - N/A   Mostly Cloudy
6:55 PM 48.2 °F - 33.8 °F 58% 29.87 in 10.0 mi ENE 9.2 mph - N/A   Mostly Cloudy
7:15 PM 46.4 °F 42.9 °F 33.8 °F 62% 29.87 in 10.0 mi ENE 6.9 mph - N/A   Mostly Cloudy
7:35 PM 46.4 °F 42.9 °F 33.8 °F 62% 29.87 in 10.0 mi ENE 6.9 mph - N/A   Mostly Cloudy
7:55 PM 44.6 °F 41.4 °F 33.8 °F 66% 29.87 in 10.0 mi ENE 5.8 mph - N/A   Scattered Clouds
8:15 PM 44.6 °F 40.7 °F 35.6 °F 71% 29.87 in 10.0 mi ENE 6.9 mph - N/A   Mostly Cloudy
8:55 PM 44.6 °F - 33.8 °F 66% 29.87 in 10.0 mi Calm Calm - N/A   Mostly Cloudy
9:15 PM 44.6 °F - 33.8 °F 66% 29.87 in 10.0 mi Calm Calm - N/A   Partly Cloudy
9:35 PM 42.8 °F 40.1 °F 33.8 °F 70% 29.87 in 10.0 mi NE 4.6 mph - N/A   Mostly Cloudy
9:55 PM 42.8 °F 41.1 °F 33.8 °F 70% 29.86 in 10.0 mi North 3.5 mph - N/A   Overcast
10:15 PM 42.8 °F 40.1 °F 33.8 °F 70% 29.85 in 10.0 mi NNE 4.6 mph - N/A   Overcast
10:35 PM 42.8 °F - 33.8 °F 70% 29.85 in 10.0 mi Calm Calm - N/A   Overcast
10:55 PM 42.8 °F - 33.8 °F 70% 29.85 in 10.0 mi Calm Calm - N/A   Overcast
11:15 PM 42.8 °F 41.1 °F 32.0 °F 66% 29.85 in 10.0 mi NE 3.5 mph - N/A   Overcast
11:35 PM 42.8 °F - 33.8 °F 70% 29.85 in 10.0 mi Calm Calm - N/A   Overcast
11:55 PM 42.8 °F - 33.8 °F 70% 29.85 in 10.0 mi Calm Calm - N/A   Overcast